DateTimeUTC,F1_A11,F1_S11,BsB_S11,BsG_S11,BsR_S11,BbsB_S11,BbsG_S11,BbsR_S11,BaB_A11,BaG_A11,BaR_A11,Tu_S11,T_S11,Uu_S11,U_S11,P_S11,T1_A11
2021-07-30T01:00:00Z,00040200,20000000,,,,,,,-000.13,-000.08,-000.06,19.0,25.8,06.7,04.4,0685.7,31.1
2021-07-30T01:01:00Z,00040200,20000000,,,,,,,-000.05,0000.12,-000.15,19.0,25.8,06.7,04.4,0685.7,31.1
2021-07-30T01:02:00Z,00040200,20000000,,,,,,,-000.08,-000.07,0000.13,19.0,25.8,06.7,04.4,0685.7,31.1
2021-07-30T01:03:00Z,00040200,60000000,,,,,,,0000.57,0000.43,0000.26,19.0,25.9,06.7,04.4,0685.7,31.1
2021-07-30T01:04:00Z,00040200,40000000,0004.52,0002.50,0001.60,0000.71,0000.53,0000.18,0000.46,0000.48,0000.35,19.2,25.7,06.6,04.5,0686.6,31.1
2021-07-30T01:05:00Z,00040200,00000000,0004.01,0003.04,0001.65,0000.93,0000.52,0000.20,0000.98,0000.96,0000.84,19.2,25.6,06.5,04.4,0686.7,31.1
2021-07-30T01:06:00Z,00040200,00000000,0003.98,0002.91,0001.65,0000.02,0000.67,0000.47,0000.72,0000.31,0000.24,19.2,25.6,06.6,04.5,0686.7,31.1
2021-07-30T01:07:00Z,00040200,00000000,0004.52,0003.00,0001.33,0001.22,0000.76,-000.06,0000.89,0000.70,0000.77,19.2,25.6,06.6,04.5,0686.6,31.1
2021-07-30T01:08:00Z,00040200,00000000,0004.04,0002.52,0001.55,0000.86,0000.30,0000.31,0000.30,0000.79,0000.09,19.2,25.6,06.7,04.5,0686.6,31.1
2021-07-30T01:09:00Z,00040200,00000000,0003.92,0002.70,0001.69,0000.70,0000.81,0000.51,0000.82,0001.05,0000.54,19.2,25.6,06.6,04.5,0686.6,31.1
2021-07-30T01:10:00Z,00040200,00000000,0004.46,0002.93,0001.73,0001.06,0000.52,0000.03,0000.63,0000.32,0000.83,19.2,25.6,06.8,04.6,0686.6,31.1
2021-07-30T01:11:00Z,00040200,00000000,0003.02,0002.57,0001.68,0000.54,0000.38,0000.29,0001.06,0000.49,0000.11,19.2,25.6,06.7,04.5,0686.6,31.1
2021-07-30T01:12:00Z,00040200,00000000,0003.69,0002.70,0001.72,0000.94,0000.67,0000.32,0000.75,0000.90,0000.66,19.2,25.5,06.6,04.5,0686.6,31.1
2021-07-30T01:13:00Z,00040200,00000000,0003.77,0002.65,0001.74,0000.87,0000.35,0000.40,0000.61,0000.36,0000.63,19.2,25.5,06.8,04.6,0686.6,31.1
2021-07-30T01:14:00Z,00040200,00000000,0004.26,0003.05,0001.31,0000.65,0000.43,0000.24,0000.45,0000.87,0000.27,19.1,25.5,06.7,04.6,0686.6,31.1
2021-07-30T01:15:00Z,00040200,00000000,0004.08,0002.57,0001.67,0001.11,0000.49,0000.34,0000.21,0000.46,0000.42,19.1,25.5,06.7,04.5,0686.6,31.1
2021-07-30T01:16:00Z,00040200,00000000,0004.11,0002.73,0001.73,0000.29,0000.71,0000.32,0000.83,0000.10,0000.14,19.1,25.5,06.4,04.4,0686.5,31.1
2021-07-30T01:17:00Z,00040200,00000000,0003.83,0002.69,0001.25,0000.71,0000.37,-000.02,0000.61,0000.94,0000.89,19.1,25.5,06.5,04.4,0686.5,31.1
2021-07-30T01:18:00Z,00040200,00000000,0003.98,0002.76,0001.71,-000.02,0000.54,-000.06,0000.10,0000.04,-000.10,19.1,25.5,06.5,04.4,0686.5,31.1
2021-07-30T01:19:00Z,00040200,00000000,0004.45,0002.68,0001.75,0000.67,0000.46,0000.09,0000.79,0000.72,0000.26,19.1,25.5,06.4,04.3,0686.5,31.1
2021-07-30T01:20:00Z,00040200,00000000,0003.51,0002.63,0001.31,0000.20,0000.48,0000.06,0001.00,0000.41,0000.43,19.1,25.4,06.7,04.5,0686.4,31.1
2021-07-30T01:21:00Z,00040200,00000000,0003.83,0002.69,0001.74,0000.72,0000.38,0000.43,0000.22,0000.78,0000.52,19.1,25.4,06.4,04.4,0686.4,31.1
2021-07-30T01:22:00Z,00040200,00000000,0003.89,0002.58,0001.49,0000.80,0000.42,0000.09,0000.80,0000.80,0000.82,19.1,25.4,06.5,04.4,0686.4,31.1
2021-07-30T01:23:00Z,00040200,00000000,0004.15,0002.62,0001.47,0000.25,0000.43,0000.27,0000.71,0000.31,0000.16,19.1,25.4,06.4,04.4,0686.4,31.1
2021-07-30T01:24:00Z,00040200,00000000,0003.61,0002.82,0001.75,0000.01,0000.58,0000.42,0000.68,0000.78,0000.60,19.0,25.4,06.6,04.4,0686.4,31.1
2021-07-30T01:25:00Z,00040200,00000000,0003.52,0003.04,0001.74,0000.61,0000.26,0000.13,0000.83,0000.58,0000.55,19.0,25.4,06.6,04.5,0686.4,31.1
2021-07-30T01:26:00Z,00040200,00000000,0003.13,0002.33,0001.64,0000.90,0000.80,0000.17,0001.29,0001.14,0001.04,19.1,25.4,06.6,04.5,0686.4,31.1
2021-07-30T01:27:00Z,00040200,00000000,0003.79,0002.61,0001.51,0000.84,0000.53,0000.45,-000.56,-000.50,-000.49,19.0,25.4,06.6,04.5,0686.4,31.1
2021-07-30T01:28:00Z,00040200,00000000,0003.38,0002.36,0001.37,0000.67,0000.41,0000.42,0000.66,0000.84,0000.55,19.0,25.4,06.5,04.4,0686.4,31.1
2021-07-30T01:29:00Z,00040200,00000000,0001.23,0000.75,0000.38,0000.40,0000.67,0000.22,-000.04,0000.17,-000.17,19.0,25.4,06.4,04.3,0686.3,31.1
2021-07-30T01:30:00Z,00040200,00000000,0002.84,0001.62,0001.16,0000.52,0000.57,-000.23,0001.80,0001.25,0001.47,19.0,25.3,06.3,04.3,0686.3,31.1
2021-07-30T01:31:00Z,00040200,00000000,0001.54,0000.92,0000.46,0000.56,0000.37,0000.23,-000.79,-000.93,-000.91,19.0,25.4,06.5,04.4,0686.3,31.1
2021-07-30T01:32:00Z,00040200,00000000,0002.75,0002.28,0001.33,0000.31,0000.37,0000.58,0000.23,0000.23,0000.03,19.1,25.4,06.2,04.2,0686.3,31.1
2021-07-30T01:33:00Z,00040200,00000000,0003.64,0002.15,0001.29,0000.42,0000.34,0000.28,0000.08,0000.27,0000.43,19.1,25.4,06.2,04.2,0686.2,31.1
2021-07-30T01:34:00Z,00040200,00000000,0000.65,0000.60,0000.22,0000.82,0000.10,0000.11,0000.19,0000.02,-000.37,19.1,25.4,06.1,04.2,0686.2,31.1
2021-07-30T01:35:00Z,00040200,00000000,0000.50,0000.33,0000.17,0000.76,0000.28,-000.08,-000.11,-000.15,0000.07,19.1,25.5,06.0,04.1,0686.2,31.1
2021-07-30T01:36:00Z,00040200,00000000,0001.08,0000.06,-000.07,0000.18,0000.16,-000.03,-000.49,-000.22,-000.27,19.1,25.4,06.0,04.1,0686.1,31.1
2021-07-30T01:37:00Z,00040200,00000000,-000.25,0000.21,-000.07,0000.40,0000.25,0000.08,-000.30,-000.38,-000.46,19.1,25.4,05.9,04.0,0686.1,31.1
2021-07-30T01:38:00Z,00040200,00000000,0000.04,0000.06,-000.04,0000.33,0000.24,-000.05,-000.41,-000.50,0000.01,19.1,25.4,05.7,03.9,0686.1,31.1
2021-07-30T01:39:00Z,00040200,00000000,0000.81,0000.16,0000.22,0000.53,0000.33,-000.12,0001.92,0001.70,0001.25,19.1,25.4,06.0,04.1,0686.1,31.1
2021-07-30T01:40:00Z,00040200,00000000,0000.13,-000.05,0000.25,0000.12,0000.46,-000.41,-001.26,-001.05,-000.93,19.1,25.4,05.9,04.0,0686.1,31.1
2021-07-30T01:41:00Z,00040200,00000000,-000.51,0000.33,0000.57,0000.36,0000.30,0000.24,0000.56,0000.79,0000.56,19.0,25.4,06.0,04.1,0686.1,31.1
2021-07-30T01:42:00Z,00040200,00000000,0000.99,0000.63,0000.45,-000.18,0000.49,-000.13,-000.22,-000.25,-000.43,19.0,25.4,06.0,04.1,0686.1,31.1
2021-07-30T01:43:00Z,00040200,00000000,0001.76,0001.71,0000.97,0000.67,0000.59,0000.08,0000.02,-000.12,0000.14,19.0,25.3,05.9,04.0,0686.1,31.1
2021-07-30T01:44:00Z,00040200,00000000,0000.11,0000.37,-000.05,-000.39,-000.02,-000.36,-000.16,-000.09,-000.36,19.0,25.3,05.7,03.9,0686.0,31.1
2021-07-30T01:45:00Z,00040200,00000000,0000.26,0000.04,-000.24,0000.75,0000.25,-000.05,0000.11,-000.12,0000.03,19.0,25.3,05.7,03.9,0686.1,31.1
2021-07-30T01:46:00Z,00040200,00000000,0000.21,0000.53,-000.04,0000.72,0000.31,-000.02,-000.93,-000.62,-000.45,19.0,25.3,05.4,03.6,0686.0,31.1
2021-07-30T01:47:00Z,00040200,00000000,0000.14,0000.09,0000.22,0000.25,0000.34,0000.03,-000.66,-001.01,-000.34,19.1,25.4,05.2,03.5,0686.0,31.1
2021-07-30T01:48:00Z,00040200,00000000,0000.65,-000.36,-000.13,0000.08,0000.09,-000.30,-000.85,-000.60,-000.67,19.1,25.4,04.9,03.3,0686.0,31.1
2021-07-30T01:49:00Z,00040200,00000000,-000.40,-000.22,0000.04,0000.19,0000.11,-000.20,0000.19,0000.54,-000.13,19.1,25.4,05.2,03.6,0686.0,31.2
2021-07-30T01:50:00Z,00040200,00000000,0000.02,0000.09,0000.06,-000.05,0000.09,-000.14,-000.21,-000.68,-000.41,19.1,25.4,04.8,03.2,0686.0,31.1
2021-07-30T01:51:00Z,00040200,00000000,0000.74,0000.09,0000.55,-000.37,0000.20,-000.09,0001.30,0001.13,0000.89,19.1,25.4,05.5,03.8,0686.0,31.1
2021-07-30T01:52:00Z,00040200,00000000,0000.08,0000.26,0000.14,0000.16,0000.18,-000.22,0000.20,0000.65,0000.55,19.1,25.4,04.9,03.3,0686.0,31.1
2021-07-30T01:53:00Z,00040200,00000000,0000.12,0000.01,-000.17,-000.02,-000.02,-000.03,-000.50,-000.84,-000.45,19.0,25.4,05.2,03.6,0685.9,31.1
2021-07-30T01:54:00Z,00040200,00000000,0000.37,0000.28,0000.19,-000.05,0000.21,0000.37,-000.61,-000.08,-000.35,19.0,25.4,04.9,03.4,0685.9,31.1
2021-07-30T01:55:00Z,00040200,00000000,0000.49,0000.09,-000.45,0000.19,0000.32,0000.05,-000.36,-000.66,-000.53,19.0,25.3,04.8,03.2,0685.8,31.1
2021-07-30T01:56:00Z,00040200,00000000,-000.10,0000.13,0000.07,-000.06,0000.05,-000.10,0000.13,-000.17,-000.02,19.0,25.3,04.7,03.2,0685.8,31.1
2021-07-30T01:57:00Z,00040200,40000000,,,,,,,0000.79,0001.34,0000.80,19.0,25.4,05.2,03.5,0685.6,31.1
2021-07-30T01:58:00Z,00040200,60000000,,,,,,,-001.11,-001.37,-000.82,18.7,25.5,05.0,03.3,0684.7,31.1
2021-07-30T01:59:00Z,00040200,20000000,,,,,,,-000.25,-000.37,-000.21,18.7,25.6,04.8,03.2,0684.7,31.1
